Location: Central Falls
(41.8900°N, 71.3929°W)
Time: 02:51:39
(UTC+00:00)

Vanguard 2 - Pass Details

Date: 12 December 2023
Orbit: 554 x 2918 km, 32.9° (Epoch: 01 March)

Event Time Altitude Azimuth Distance (km) Brightness Sun altitude
Rises 21:09:18 0° 201° (SSW) 5,626 12.9 0.0°
Reaches altitude 10° 21:13:33 10° 190° (S) 4,946 12.3 -0.7°
Maximum altitude 21:25:08 27° 140° (SE) 4,274 11.2 -2.5°
Drops below altitude 10° 21:38:23 10° 91° (E) 5,737 11.4 -4.7°
Enters shadow 21:42:39 - 83° (E) 6,467 11.6 -5.4°
Sets 21:43:45 0° 81° (E) 6,665 - -5.6°
